EW3845 Weather Reports


Display with metric or nautical units.
time (UTC)temp
F
wind
direction
speed
MPH
gust
MPH
rain 1hr
in
rain 24hr
in
rain mn
in
humidity
%
barometer
mb
20260903173037 72 360 0.0 0.0 0.00 0.02 0.02 80 1017.0
20260903171543 72 290 0.0 0.0 0.00 0.02 0.02 80 1017.0
20260903170043 72 360 0.0 0.0 0.00 0.02 0.02 79 1016.9
20260903164537 72 293 0.0 0.0 0.00 0.02 0.02 79 1016.7
20260903163040 73 306 0.0 0.0 0.00 0.02 0.02 78 1016.7
20260903161536 73 289 0.0 0.0 0.00 0.02 0.02 78 1016.8
20260903160035 73 290 0.0 0.0 0.00 0.02 0.02 78 1017.0
20260903154534 73 296 0.0 0.0 0.00 0.02 0.02 78 1017.1
20260903153032 73 360 0.0 0.0 0.00 0.02 0.02 79 1017.2
20260903151532 72 289 0.0 0.0 0.00 0.02 0.02 79 1017.2
20260903150043 72 360 0.0 0.0 0.00 0.02 0.02 79 1017.2
20260903144530 72 360 0.0 0.0 0.00 0.02 0.02 80 1017.2
20260903143036 72 298 0.0 0.0 0.00 0.02 0.02 80 1017.2
20260903141526 72 360 0.0 0.0 0.00 0.02 0.02 81 1017.2
20260903140025 71 360 0.0 0.0 0.00 0.02 0.02 81 1017.3
20260903134525 71 289 0.0 0.0 0.00 0.02 0.02 82 1017.5
20260903133022 70 286 0.0 0.0 0.00 0.02 0.02 82 1017.5
20260903131522 70 292 0.0 0.0 0.00 0.02 0.02 82 1017.4
20260903130024 70 316 0.0 0.0 0.00 0.02 0.02 81 1017.3
20260903124521 70 290 0.0 0.0 0.00 0.02 0.02 82 1017.3
20260903123019 70 299 0.0 0.0 0.00 0.02 0.02 84 1017.3
20260903121515 69 284 0.0 0.0 0.00 0.02 0.02 87 1017.3
20260903120015 68 289 0.0 0.0 0.00 0.02 0.02 89 1017.3
20260903114513 67 360 0.0 0.0 0.00 0.02 0.02 89 1017.4
20260903113012 67 295 0.0 0.0 0.00 0.02 0.02 89 1017.4
20260903111511 67 286 0.0 0.0 0.00 0.02 0.02 88 1017.2
20260903110011 66 360 0.0 0.0 0.00 0.02 0.02 89 1017.2
20260903104512 66 287 0.0 0.0 0.00 0.02 0.02 89 1017.2
20260903103009 66 296 0.0 0.0 0.00 0.02 0.02 90 1017.2
20260903101521 66 294 0.0 0.0 0.01 0.02 0.02 90 1017.3
20260903100008 66 290 0.0 0.0 0.01 0.02 0.02 90 1017.2
20260903094508 66 290 0.0 0.0 0.02 0.02 0.02 90 1017.1
20260903093006 65 360 0.0 0.0 0.02 0.02 0.02 89 1016.9
20260903091506 65 360 0.0 0.0 0.02 0.02 0.02 87 1017.2
20260903090005 66 360 0.0 0.0 0.02 0.02 0.02 84 1017.2
20260903084509 67 289 0.0 0.0 0.00 0.00 0.00 79 1017.1
20260903083002 68 360 0.0 0.0 0.00 0.00 0.00 77 1017.0
20260903081502 68 284 0.0 0.0 0.00 0.00 0.00 76 1016.8
20260903080104 68 288 0.0 0.0 0.00 0.00 0.00 77 1016.8
20260903080000 68 360 0.0 0.0 0.00 0.00 0.00 77 1016.7
20260903074605 67 189 0.0 0.0 0.00 0.00 0.00 77 1016.9
20260903073057 67 290 0.0 0.0 0.00 0.00 0.00 76 1016.9
20260903071556 67 296 0.0 0.0 0.00 0.00 0.00 76 1017.0
20260903070053 66 360 0.0 0.0 0.00 0.00 0.00 76 1017.0
20260903064601 66 284 0.0 0.0 0.00 0.00 0.00 75 1016.9
20260903063049 65 360 0.0 0.0 0.00 0.00 0.00 74 1016.7
20260903061547 65 286 0.0 0.0 0.00 0.00 0.00 74 1017.1
20260903060047 65 188 0.0 0.0 0.00 0.00 0.00 74 1016.9
20260903054544 64 157 0.0 0.0 0.00 0.00 0.00 74 1017.1
20260903053057 64 151 0.0 0.0 0.00 0.00 0.00 74 1016.7
20260903051547 64 171 0.0 0.0 0.00 0.00 0.00 75 1016.8
20260903050041 64 170 0.0 0.0 0.00 0.00 0.00 75 1017.2
20260903044542 63 171 0.0 0.0 0.00 0.00 0.00 75 1017.2
20260903043040 63 171 0.0 0.0 0.00 0.00 0.00 75 1017.1
20260903041549 63 171 0.0 0.0 0.00 0.00 0.00 76 1016.9
20260903040046 62 171 0.0 0.0 0.00 0.00 0.00 77 1017.0
20260903034536 62 169 0.0 0.0 0.00 0.00 0.00 76 1017.1
20260903033034 63 170 0.0 0.0 0.00 0.00 0.00 76 1017.3
20260903031534 63 194 0.0 0.0 0.00 0.00 0.00 76 1017.6
20260903030040 63 195 0.0 0.0 0.00 0.00 0.00 76 1017.5
20260903024532 63 195 0.0 0.0 0.00 0.00 0.00 76 1017.6
20260903023034 63 195 0.0 0.0 0.00 0.00 0.00 76 1017.5
20260903021529 63 195 0.0 0.0 0.00 0.00 0.00 76 1017.8
20260903020028 63 195 0.0 0.0 0.00 0.00 0.00 76 1017.8
20260903014526 63 195 0.0 0.0 0.00 0.00 0.00 76 1018.1
20260903013024 63 195 0.0 0.0 0.00 0.00 0.00 76 1018.4
20260903011524 63 202 0.0 0.0 0.00 0.00 0.00 76 1018.3
20260903010024 63 226 0.0 0.0 0.00 0.00 0.00 76 1018.4
20260903004522 63 226 0.0 0.0 0.00 0.00 0.00 76 1018.4
20260903003020 63 229 0.0 0.0 0.00 0.00 0.00 76 1018.5
20260903001525 63 229 0.0 0.0 0.00 0.00 0.00 76 1018.6
20260903000023 63 230 0.0 0.0 0.00 0.00 0.00 77 1018.8
20260902234517 63 231 0.0 0.0 0.00 0.00 0.00 77 1018.9
20260902233016 63 231 0.0 0.0 0.00 0.00 0.00 78 1019.0
20260902231522 63 261 0.0 0.0 0.00 0.00 0.00 78 1019.1
20260902230013 63 261 0.0 0.0 0.00 0.00 0.00 78 1019.3
20260902224513 63 360 0.0 0.0 0.00 0.00 0.00 78 1019.2
20260902223011 64 360 0.0 0.0 0.00 0.00 0.00 78 1019.3
20260902221509 64 360 0.0 0.0 0.00 0.00 0.00 77 1019.3
20260902220008 64 360 0.0 0.0 0.00 0.00 0.00 77 1019.5
20260902214507 64 360 0.0 0.0 0.00 0.00 0.00 77 1019.4
20260902213006 64 360 0.0 0.0 0.00 0.00 0.00 77 1019.5
20260902211510 65 360 0.0 0.0 0.00 0.00 0.00 76 1019.4
20260902210006 65 360 0.0 0.0 0.00 0.00 0.00 76 1019.5
20260902204506 65 360 0.0 0.0 0.00 0.00 0.00 76 1019.4
20260902203005 65 360 0.0 0.0 0.00 0.00 0.00 76 1019.7
20260902201504 65 360 0.0 0.0 0.00 0.00 0.00 76 1019.7
20260902200004 65 360 0.0 0.0 0.00 0.00 0.00 75 1019.7
20260902194504 65 360 0.0 0.0 0.00 0.00 0.00 75 1019.7
20260902193004 66 360 0.0 0.0 0.00 0.00 0.00 74 1019.8
20260902191503 67 360 0.0 0.0 0.00 0.00 0.00 74 1019.6
20260902190007 67 360 0.0 0.0 0.00 0.00 0.00 72 1019.7
20260902184503 67 360 0.0 0.0 0.00 0.00 0.00 71 1019.7
20260902183002 68 360 0.0 0.0 0.00 0.00 0.00 70 1019.6
20260902181501 68 360 0.0 0.0 0.00 0.00 0.00 70 1019.5
20260902180005 69 360 0.0 0.0 0.00 0.00 0.00 68 1019.4
20260902174601 69 360 0.0 0.0 0.00 0.00 0.00 67 1019.3